Wind_Speed
38 38 38 38 38 37 36 35 34 33 33 32 31 29 28 28 27 26 26 25 23 22 19 18 17 16 14 13 13 13 13 12 12 12 13 12 13 12 12 12 11 10 9 9 9 9 10 10 10 9 10 12 13 13 12 12 13 13 14 14 14 14 14 15 16 18 17 15 15 15 14 13 14 15 15 15 14 16 17 15 14 16 19 20 20
39 38 38 39 39 38 37 36 35 35 34 33 33 32 31 31 30 29 28 26 24 24 22 20 20 19 18 17 15 15 15 14 12 13 14 13 13 13 13 14 13 11 11 11 11 10 11 11 11 10 11 12 13 13 14 14 14 14 14 14 14 14 14 15 16 17 18 16 15 15 15 14 14 15 15 15 17 19 18 15 13 15 18 19 19
39 39 39 40 39 39 38 37 37 37 36 36 35 34 34 33 32 31 30 27 25 25 25 24 23 22 20 19 18 16 15 15 14 15 15 14 13 13 13 13 13 12 12 12 11 11 11 11 11 11 12 12 13 14 14 16 16 16 16 15 15 15 15 15 16 18 19 19 17 16 15 14 14 15 14 15 18 19 18 15 15 17 18 18 19
39 39 39 40 39 39 39 39 39 39 38 38 36 35 34 33 33 32 30 28 26 26 27 26 24 22 21 20 19 17 16 16 16 16 16 15 14 15 15 15 14 13 13 12 12 12 13 13 13 13 13 13 14 14 15 16 17 17 17 16 16 17 16 15 16 18 19 20 19 18 16 17 17 16 14 15 18 17 16 16 16 17 18 18 20
38 39 39 39 39 39 40 41 41 41 40 39 37 35 33 32 34 34 32 30 29 29 29 28 25 24 23 22 20 18 17 17 17 17 17 16 16 16 16 16 15 14 14 14 14 14 14 15 15 14 14 15 15 15 16 16 17 17 16 16 16 16 16 15 16 17 18 20 20 20 19 18 19 18 15 15 17 17 17 17 18 18 19 19 19
37 38 38 39 40 40 40 41 43 42 42 40 37 36 34 32 33 36 34 33 32 32 31 29 28 26 24 22 20 19 18 17 18 18 18 17 17 17 17 16 16 15 15 15 15 15 15 16 15 15 16 17 17 17 17 17 18 17 17 17 16 16 16 17 18 18 18 19 21 22 21 19 19 20 18 16 17 18 18 19 20 21 20 19 18
36 36 37 38 39 41 41 42 43 42 41 40 37 37 36 32 33 37 36 34 34 34 32 31 29 27 24 22 20 20 19 18 19 19 19 19 19 18 18 17 16 15 16 16 15 16 16 16 16 16 17 18 18 18 18 18 18 18 18 17 16 17 17 17 18 18 18 20 21 21 20 19 18 19 18 17 18 18 18 19 20 20 20 20 21
36 35 37 37 39 40 40 41 42 40 40 40 38 38 38 35 35 38 37 35 35 35 34 32 30 28 26 23 22 22 21 20 20 20 20 20 20 20 19 17 17 16 16 16 16 16 16 16 16 16 17 19 19 18 18 19 18 18 19 18 17 18 18 17 18 18 18 19 21 21 20 20 20 19 17 17 18 19 19 19 20 21 22 23 24
35 35 37 38 39 40 40 40 41 40 40 41 39 39 39 38 38 39 38 37 37 36 34 33 31 30 28 25 24 24 24 23 23 23 22 22 21 21 20 19 18 17 17 16 16 16 17 16 15 16 17 19 21 21 19 19 19 20 20 20 19 18 18 18 18 18 19 20 20 20 21 21 20 18 17 17 18 19 19 20 21 23 23 23 24
36 35 37 39 40 40 39 39 38 37 38 40 40 40 40 40 41 41 40 38 38 36 33 32 32 31 30 28 27 27 26 25 24 24 23 22 22 21 21 20 19 18 17 17 16 16 16 16 16 16 18 21 24 24 22 20 21 23 24 24 23 21 21 20 20 20 21 21 20 20 21 20 19 18 18 18 19 19 20 20 22 22 23 25 26
37 37 38 39 40 40 39 38 37 35 34 33 33 37 41 42 42 42 41 39 39 38 35 34 34 33 31 30 29 28 27 25 25 24 23 23 22 22 22 21 19 17 17 17 17 16 16 16 16 17 18 20 22 22 22 21 21 22 24 26 26 25 23 23 23 23 23 22 22 21 20 20 19 18 18 18 18 19 20 21 22 23 25 26 26
37 37 37 38 39 38 37 37 35 34 33 28 24 27 36 41 41 41 41 40 39 39 39 37 36 34 33 33 32 30 28 27 26 25 24 24 23 22 22 22 19 17 17 17 17 16 16 16 16 17 17 18 19 20 21 22 21 22 23 25 26 26 25 26 26 27 26 25 24 23 22 22 21 20 20 20 19 20 22 23 23 25 27 26 26
36 37 37 37 36 36 35 34 33 33 33 29 22 21 26 31 32 32 37 40 40 39 40 39 38 37 36 35 34 32 29 28 27 25 24 24 23 22 23 24 23 20 18 17 17 17 17 17 18 18 18 19 20 21 22 23 23 22 22 23 25 27 28 29 30 29 29 28 27 26 25 23 23 23 23 23 23 24 26 25 24 25 27 26 26
34 36 35 35 35 32 29 29 30 31 28 23 19 20 22 24 24 24 27 34 40 41 41 40 40 39 37 36 34 31 29 28 27 24 24 23 21 21 23 24 24 23 21 19 19 18 18 18 19 20 20 20 21 21 22 23 22 22 23 24 27 29 29 31 31 30 30 30 28 28 27 26 25 25 24 24 25 26 27 26 24 26 29 31 33
32 33 33 32 32 28 25 25 26 25 20 15 15 19 22 22 24 24 23 25 30 34 39 42 42 40 38 36 32 30 28 27 25 23 21 18 16 17 20 22 24 24 23 21 20 20 20 20 21 22 22 21 21 22 23 23 22 25 27 26 27 28 28 28 28 28 27 28 29 29 28 26 23 23 24 25 28 29 29 29 29 32 35 36 37
31 30 30 29 28 26 25 24 22 18 15 13 15 18 21 22 24 25 25 24 24 25 30 38 42 41 38 35 33 30 27 25 24 22 18 14 12 13 17 20 23 25 24 22 20 20 20 21 22 22 22 22 22 23 24 25 26 29 31 29 28 28 26 26 28 27 24 26 29 28 26 24 22 24 26 28 29 30 30 31 32 33 34 34 32
28 26 26 25 24 24 21 19 17 15 13 14 15 14 17 19 21 23 26 27 27 27 26 29 38 43 41 36 34 31 27 25 24 21 16 13 11 12 15 18 21 24 24 22 20 19 19 20 22 22 22 22 23 24 24 26 28 29 30 30 28 28 26 28 31 30 24 23 24 23 24 25 25 26 26 25 26 26 27 28 29 28 28 28 29
27 25 24 24 23 21 18 15 14 14 13 14 13 12 14 17 19 22 25 25 28 30 26 25 34 44 44 37 33 30 26 25 26 22 15 12 11 10 12 15 19 22 24 22 20 18 17 18 19 20 21 21 22 24 25 27 29 27 27 27 27 27 27 27 28 27 23 21 19 19 21 23 24 26 26 26 25 24 24 25 24 22 24 27 30
27 26 25 23 21 18 17 16 14 14 14 13 13 13 15 16 19 23 25 23 23 25 25 25 30 39 40 37 35 33 28 24 23 20 14 13 12 10 10 15 19 21 23 21 17 16 16 17 18 19 20 20 21 22 23 25 25 25 25 25 24 24 25 24 24 24 22 17 15 16 18 21 25 28 30 29 25 22 22 23 22 21 23 25 25
26 25 22 20 19 17 15 14 13 13 13 12 12 13 14 15 17 21 24 21 18 20 25 26 26 31 35 35 34 33 28 23 22 21 18 16 16 14 13 17 21 21 20 17 15 15 15 15 17 19 21 22 21 21 22 22 22 23 24 24 23 23 23 23 22 23 22 20 20 21 23 25 26 27 26 25 23 21 21 22 22 22 23 23 23
20 20 19 18 17 16 14 13 13 13 12 12 12 13 14 15 17 19 21 20 17 20 25 25 22 25 28 29 30 29 25 24 23 21 18 17 19 19 19 20 19 18 16 14 14 15 15 14 15 18 21 23 23 22 22 21 22 23 24 26 26 24 24 23 22 23 25 25 24 24 24 24 24 23 23 22 21 20 20 20 22 23 23 24 26
19 19 18 17 16 15 13 13 13 12 12 12 12 14 16 19 19 20 21 21 20 21 24 22 21 22 23 24 26 27 25 25 24 20 16 16 18 19 21 21 18 16 16 15 14 15 15 15 18 21 22 24 24 22 21 22 23 24 24 25 26 25 24 24 24 25 26 25 23 22 23 23 23 23 22 21 19 19 19 19 21 23 24 27 29
18 17 16 15 15 15 13 12 12 10 11 12 13 16 19 20 20 21 21 21 20 20 22 23 22 22 22 23 24 24 24 23 22 17 14 14 16 19 20 19 16 15 16 14 14 16 16 17 20 21 22 23 23 22 22 22 23 24 24 24 25 24 23 23 24 25 26 26 25 24 24 23 21 20 20 19 19 20 20 19 20 23 27 29 29
16 15 15 16 15 14 13 12 12 11 12 14 15 18 20 20 20 21 20 20 19 19 22 26 26 23 21 22 23 23 20 18 16 13 11 14 17 19 18 16 14 14 14 14 15 16 18 19 19 20 20 22 23 23 24 24 25 25 25 24 23 21 21 21 22 24 23 22 22 21 20 20 19 19 19 19 20 22 23 22 23 24 26 27 27
16 15 15 14 13 13 13 13 13 13 13 14 14 16 17 17 17 17 17 19 20 20 23 27 28 25 22 20 21 21 17 15 12 10 13 17 18 16 16 16 14 13 14 15 16 17 18 18 19 20 21 22 24 25 25 25 25 25 23 22 20 19 19 19 20 20 19 17 17 17 18 18 19 18 19 20 23 27 28 26 25 24 23 24 26
14 13 13 13 12 12 12 11 12 12 12 12 13 15 15 15 14 13 14 16 17 18 21 23 25 26 24 20 18 17 14 13 11 11 15 19 19 17 16 15 13 12 14 15 16 16 17 18 19 20 21 22 23 24 25 24 24 23 21 19 18 18 17 16 14 14 14 14 15 16 17 17 17 18 21 23 25 26 24 23 22 22 23 24 26
14 13 12 11 11 12 13 12 11 10 10 11 11 11 12 13 13 14 14 14 15 15 16 18 21 23 22 17 15 14 12 11 13 15 18 19 18 16 14 12 11 11 13 14 15 16 17 19 19 20 20 21 21 22 23 23 22 21 18 16 14 13 12 12 12 13 14 13 14 16 17 17 17 19 22 22 21 20 20 20 22 22 23 24 25
15 14 13 11 10 11 11 11 11 10 11 12 11 11 12 12 12 14 16 17 17 17 16 18 20 19 16 13 13 14 13 14 15 17 18 18 16 13 10 9 10 10 10 10 12 14 16 18 18 17 16 16 15 14 15 14 14 12 10 10 10 10 11 11 12 12 13 14 16 17 17 17 18 19 19 19 19 19 19 20 21 22 22 23 23
15 15 14 11 9 9 9 10 10 10 13 14 15 15 14 13 13 15 17 18 19 19 18 18 20 17 13 10 11 12 14 16 16 16 15 16 15 12 9 10 11 11 11 10 9 10 12 13 13 12 12 11 10 9 9 9 8 7 6 7 8 10 11 12 12 12 13 15 16 17 17 19 19 18 17 18 18 19 19 19 21 22 21 21 22
14 15 14 12 11 10 10 11 12 13 14 14 14 14 14 14 14 15 15 15 17 18 18 17 18 16 12 9 10 12 14 16 16 15 16 18 17 14 13 12 13 13 13 12 11 12 13 13 12 12 12 12 11 11 10 10 10 10 8 9 9 9 10 11 13 14 14 15 15 16 17 18 17 16 17 18 18 18 19 19 20 20 20 20 21
14 12 12 13 13 12 10 11 12 13 12 12 12 11 12 14 15 14 14 15 16 18 19 18 14 11 9 9 12 14 14 14 14 15 17 17 16 15 14 14 14 14 13 12 13 13 13 13 12 11 11 12 13 12 11 10 11 10 10 10 10 9 10 12 14 14 14 14 16 17 16 16 16 17 17 17 18 18 18 18 18 18 19 20 21
12 11 13 15 14 11 10 11 11 11 10 11 11 9 9 12 16 15 15 14 15 17 19 15 10 9 10 12 13 13 11 11 13 14 14 14 14 14 14 13 13 13 12 12 12 11 10 10 10 10 10 11 11 10 9 9 9 9 10 11 11 11 12 14 15 17 18 18 17 16 15 15 16 16 16 17 18 18 17 17 17 18 18 19 20
11 12 13 14 12 12 11 11 10 9 9 9 9 8 8 11 15 16 15 14 15 17 16 11 9 11 14 14 14 12 11 11 13 13 13 13 13 13 13 13 12 12 11 10 9 8 8 8 8 9 9 9 9 9 9 8 9 9 10 11 11 12 12 14 17 20 20 17 14 13 14 14 15 15 16 16 16 16 16 17 18 18 18 19 20
11 11 11 11 12 11 10 9 8 7 7 8 10 10 9 10 13 14 15 15 16 17 16 12 11 14 15 14 13 12 11 12 13 13 12 12 11 12 12 11 10 9 9 8 7 7 8 8 8 8 9 8 8 9 8 8 9 10 10 11 12 13 13 14 17 18 15 11 11 12 13 14 14 14 15 15 15 16 17 17 17 17 18 19 21
11 12 13 13 13 11 9 9 10 10 10 12 13 12 11 11 13 13 13 13 14 15 15 14 14 14 14 13 13 13 13 13 12 12 11 10 11 11 9 7 5 4 5 5 5 6 7 7 8 8 9 8 8 8 8 8 9 10 11 11 13 14 14 14 13 12 10 10 12 13 13 13 13 13 14 15 15 16 16 17 17 17 19 19 21
11 13 13 13 12 11 11 11 12 12 12 13 13 11 11 12 12 11 11 11 13 14 15 14 14 14 14 15 15 14 13 12 11 10 10 10 10 8 5 3 3 5 4 3 3 4 5 7 7 7 7 8 8 9 10 9 9 10 11 12 13 14 13 11 10 11 12 12 13 12 12 12 12 13 13 14 15 16 16 16 17 18 18 19 21
11 12 12 12 12 12 12 12 12 12 12 12 12 12 11 11 11 11 11 12 12 14 15 16 15 15 15 15 14 13 12 11 10 10 10 9 8 6 5 6 6 7 6 5 5 6 7 7 7 7 7 7 8 9 10 9 10 11 11 11 13 15 14 12 12 14 14 12 11 10 11 11 11 12 13 14 15 16 16 16 17 18 18 20 21
12 12 12 12 12 12 13 12 11 11 11 10 11 11 10 10 11 11 11 11 12 12 12 14 15 15 14 13 13 12 12 11 10 10 8 8 6 6 6 6 6 7 8 8 8 8 8 8 7 7 8 8 8 9 10 10 10 10 11 12 14 15 14 13 12 11 10 9 8 9 10 10 11 12 13 14 15 16 16 16 17 18 18 19 19
13 13 13 12 11 11 12 11 10 10 10 9 9 9 10 10 10 11 10 10 12 12 9 8 10 11 11 12 12 12 12 10 8 6 6 5 6 6 6 6 7 7 8 7 7 7 8 8 7 8 9 10 9 9 10 10 10 10 12 13 13 12 11 11 9 8 7 8 8 9 9 10 10 11 12 13 14 15 16 17 17 17 18 19 19
11 11 12 11 10 10 11 10 9 9 9 9 9 9 9 9 9 10 10 10 11 11 10 8 8 9 11 12 10 9 9 8 7 7 7 6 6 7 7 7 8 7 8 7 7 8 8 8 8 9 10 11 10 10 10 10 9 10 12 12 10 9 9 9 8 8 8 8 8 8 9 10 10 11 12 13 14 15 16 17 16 17 18 18 18
9 9 12 11 10 9 9 9 9 9 9 9 9 9 9 9 9 9 9 9 9 9 9 9 9 11 14 13 8 6 7 9 9 10 10 8 8 8 8 9 8 7 8 8 8 8 8 8 8 9 10 11 11 10 10 10 10 11 11 10 9 9 9 8 8 8 8 8 8 8 9 9 10 11 12 13 15 15 15 16 16 16 17 18 18
7 8 10 11 9 9 8 8 9 10 10 10 10 10 10 9 9 8 8 9 8 8 8 8 10 13 14 12 10 7 8 9 8 9 10 10 9 9 9 9 8 8 9 9 8 9 9 9 9 10 11 12 12 11 11 10 10 10 10 9 8 8 8 7 7 7 7 7 8 8 9 10 10 11 12 13 14 15 15 15 16 16 17 17 17
6 7 9 9 9 10 10 10 10 11 10 10 10 10 10 9 8 7 7 8 8 7 7 8 10 11 12 12 13 12 11 9 8 9 10 10 9 9 8 8 8 9 9 8 7 8 9 9 10 11 12 11 10 10 10 9 9 9 9 8 8 8 7 7 7 6 6 7 7 8 9 10 10 11 12 13 14 15 15 15 15 16 16 17 17
7 8 9 9 9 10 12 11 11 11 11 12 11 11 9 8 7 7 8 8 8 8 7 8 8 8 7 9 12 12 12 11 9 9 9 9 9 8 8 8 8 10 9 8 7 8 9 9 10 10 10 9 10 13 14 12 10 8 8 7 7 7 7 7 6 6 7 8 8 8 9 9 10 11 12 12 13 14 15 15 15 16 16 17 17
8 9 10 10 11 11 11 11 10 11 12 12 10 9 8 7 7 7 7 8 8 8 8 9 9 6 4 5 7 9 11 11 10 9 9 8 9 9 8 8 8 9 9 8 8 8 8 8 9 9 9 10 11 13 13 12 9 9 9 8 7 6 6 6 8 10 11 10 9 8 8 9 10 10 11 12 13 14 14 15 15 16 16 16 17
9 10 11 11 11 11 11 10 10 10 9 9 8 7 6 7 7 7 7 7 8 8 8 8 9 7 6 5 6 7 8 9 9 10 9 9 9 9 9 9 9 8 7 7 8 9 7 6 7 9 10 10 10 10 9 8 8 10 11 10 10 9 9 10 11 12 11 11 10 10 9 9 9 10 11 13 13 13 14 15 15 15 15 16 16
9 10 10 10 10 11 11 10 10 8 7 8 8 7 6 7 7 7 8 8 8 7 8 8 8 7 7 7 6 6 7 8 9 10 10 10 10 10 10 10 10 9 8 8 9 9 7 5 5 7 8 9 10 10 8 6 6 7 8 9 12 13 13 13 12 11 11 12 11 11 11 10 9 10 11 12 12 13 13 14 14 14 15 15 15
7 8 9 10 10 11 11 10 9 8 8 8 8 7 7 7 7 7 8 7 7 7 9 9 7 7 7 7 7 8 8 8 9 10 10 10 11 11 11 11 11 10 9 10 10 9 8 6 5 5 7 9 10 9 9 8 7 7 7 10 13 14 12 11 12 12 12 11 11 11 11 10 9 10 11 11 12 12 13 13 14 14 14 14 15
5 8 12 12 11 10 11 10 9 9 9 8 8 8 7 7 7 7 7 7 6 7 9 9 8 7 8 8 8 8 8 9 10 10 11 11 12 12 13 13 13 12 11 11 11 11 10 8 6 5 6 8 9 8 8 8 7 8 10 13 13 11 10 11 12 12 11 11 11 11 11 10 8 9 10 11 11 11 12 12 13 13 13 13 14
5 7 10 11 9 9 9 9 9 9 9 8 7 8 8 7 8 8 7 7 7 7 7 7 7 8 8 8 9 10 10 10 11 12 12 12 13 13 13 14 14 14 13 12 12 12 11 10 8 6 6 6 8 8 8 7 8 10 12 13 11 9 11 12 12 11 11 11 11 11 11 9 7 7 8 9 10 11 11 11 12 13 13 13 13
4 5 7 7 7 7 9 8 8 9 9 8 8 9 9 8 8 8 8 8 8 8 8 8 8 9 9 10 11 11 12 12 12 12 13 14 15 15 15 15 16 15 14 13 14 14 13 12 11 9 6 6 7 8 7 8 11 12 12 11 10 10 12 12 11 11 11 11 11 11 10 8 6 6 7 8 9 10 9 9 11 12 11 11 12
Wind_Direction
222 222 223 224 224 225 226 227 228 229 229 228 228 228 227 227 228 227 227 232 237 240 240 240 244 245 238 229 224 227 234 233 230 234 236 235 231 219 211 222 231 226 225 228 230 237 244 251 258 261 264 269 271 272 270 266 266 267 268 272 273 274 276 277 277 280 283 283 281 283 284 280 282 288 290 290 288 285 286 286 287 290 289 288 288
221 222 222 223 224 225 226 227 228 229 230 230 229 230 231 230 230 227 227 231 236 239 239 237 240 240 233 229 227 225 229 230 229 233 236 236 234 224 212 216 225 225 226 230 232 238 247 254 257 258 261 267 271 272 270 266 262 261 263 265 267 267 268 271 275 278 284 286 284 285 286 281 282 288 289 290 290 290 289 287 283 283 284 285 286
221 221 221 223 223 224 226 227 229 230 230 230 230 231 232 232 232 229 228 231 235 240 241 237 235 234 229 229 230 225 225 230 231 232 235 237 233 224 217 219 225 227 230 235 238 243 251 255 258 261 263 266 268 268 267 266 264 263 261 257 255 258 261 264 270 275 281 286 286 285 285 283 278 274 274 280 287 291 295 292 282 280 281 282 282
219 222 221 223 224 224 226 227 229 230 230 230 231 231 232 233 234 231 228 230 234 239 241 238 235 233 229 228 229 227 226 231 233 232 233 237 234 226 221 222 225 228 233 237 240 247 253 256 259 264 266 266 266 263 263 267 268 266 266 262 261 265 266 266 269 273 279 284 287 287 286 285 284 280 276 278 282 285 287 283 279 279 280 282 283
215 222 222 222 223 225 226 228 230 230 230 231 231 231 229 229 233 232 228 228 233 235 235 235 235 234 230 228 229 230 230 232 233 232 231 232 233 231 228 228 230 232 236 240 243 249 256 261 262 262 262 264 265 262 262 266 268 266 263 261 262 266 268 268 271 274 277 283 287 289 289 288 290 289 283 277 279 282 281 280 279 275 272 275 279
209 217 221 221 223 226 227 229 231 231 231 233 233 232 227 221 226 233 230 227 231 233 232 232 234 234 231 229 230 233 233 233 232 232 232 230 230 232 232 233 235 237 241 246 250 254 260 264 264 259 259 263 265 264 263 264 265 265 262 260 260 262 266 270 274 277 279 282 285 288 290 290 290 290 286 278 275 275 276 278 279 275 273 273 275
203 210 217 219 222 227 229 231 232 232 234 235 234 233 228 217 219 231 233 228 229 232 232 231 232 234 232 228 229 234 236 236 233 231 231 229 229 232 233 233 235 239 244 248 252 255 257 259 260 260 261 263 263 263 264 264 264 263 263 262 258 260 265 269 274 277 277 276 278 281 284 287 286 286 286 283 277 277 280 283 284 284 282 280 279
198 203 213 217 222 228 230 232 234 234 235 236 235 234 231 221 220 231 235 230 228 231 233 232 232 232 231 227 229 234 237 237 234 231 230 228 229 233 235 233 236 240 244 249 252 255 255 255 257 259 260 263 266 267 264 261 260 261 264 264 259 257 261 265 271 275 273 274 277 278 279 283 284 284 285 284 282 282 284 285 285 285 284 284 284
195 199 210 217 222 228 230 231 234 234 233 235 236 235 232 227 226 232 234 232 230 230 231 233 233 231 230 229 229 231 234 235 232 230 230 228 227 232 235 236 239 243 246 249 252 254 256 257 257 259 259 263 270 274 271 265 260 260 262 262 261 260 261 265 269 271 272 275 277 278 279 280 281 282 282 280 280 282 284 284 284 285 286 285 283
197 199 210 216 221 227 229 230 233 234 232 234 236 236 233 229 230 233 235 233 231 229 227 229 233 232 229 229 230 229 230 233 232 231 231 230 229 231 235 238 241 244 247 250 251 253 257 259 260 261 261 263 268 273 273 269 263 262 262 262 261 261 263 267 270 271 274 277 277 279 279 277 276 277 278 278 279 282 284 284 285 286 287 286 284
198 200 209 217 221 226 228 231 235 236 234 233 234 234 233 230 230 233 234 232 231 229 226 227 231 233 231 229 229 228 229 233 236 234 233 232 230 231 235 238 242 246 249 250 251 254 257 259 262 264 264 267 270 273 276 275 268 263 263 262 261 261 264 268 270 272 274 276 276 276 275 274 275 275 277 280 282 282 282 283 284 286 286 286 286
196 200 208 217 223 226 230 234 237 238 237 236 233 231 232 232 230 232 233 232 229 229 229 229 231 232 233 231 229 227 228 234 237 236 235 235 233 232 237 240 243 248 250 250 253 256 257 259 262 264 264 265 266 268 273 276 273 267 265 264 263 262 262 266 269 271 274 276 275 273 271 273 275 275 278 281 282 282 283 283 284 285 285 283 283
199 204 209 217 224 229 234 237 238 239 242 242 234 224 227 230 228 230 233 233 230 229 231 232 231 232 233 232 229 226 226 230 235 236 236 237 235 234 237 242 245 247 247 248 252 255 256 259 263 267 267 264 264 266 268 269 272 273 272 268 267 266 265 266 268 271 274 275 273 271 271 272 271 274 278 281 282 283 284 285 283 282 282 281 280
201 207 211 219 225 229 233 235 237 240 241 236 223 216 222 225 224 226 230 231 231 232 232 232 232 230 230 230 228 226 227 231 234 236 237 239 239 237 239 245 248 249 247 248 250 254 257 259 264 269 270 268 267 267 267 268 269 268 267 269 273 275 273 273 274 273 273 273 272 273 276 274 271 274 277 280 282 283 283 282 279 277 278 279 281
203 208 212 219 224 226 230 235 235 232 227 218 211 214 220 223 223 224 224 224 227 230 232 234 233 229 227 228 227 226 230 233 234 237 240 243 245 245 244 247 249 250 250 250 254 259 262 265 271 275 275 275 273 270 270 273 270 266 269 274 276 275 275 278 279 271 265 268 274 277 278 275 272 274 278 281 284 285 283 281 278 278 280 282 285
204 207 211 216 221 225 228 228 223 216 209 211 213 213 215 220 223 223 220 219 221 224 228 231 232 227 224 225 226 226 231 237 239 242 242 241 248 251 246 243 244 248 252 254 256 261 265 269 276 281 280 281 281 276 274 276 276 276 281 283 277 274 277 281 279 272 266 271 278 278 275 272 270 272 276 279 282 284 284 281 280 279 280 283 285
201 205 208 212 217 219 215 210 207 205 205 212 216 214 215 220 225 225 222 220 220 223 225 226 229 228 225 224 226 224 226 235 241 243 243 242 249 254 247 245 247 251 255 257 259 265 271 273 277 282 284 286 286 280 277 279 281 283 286 285 281 279 280 279 278 280 281 279 276 271 268 271 275 276 279 283 285 286 283 280 281 282 281 282 284
200 204 206 209 213 209 199 195 199 203 205 210 214 213 212 216 222 228 228 222 220 226 226 220 226 230 228 223 221 219 224 237 244 246 245 240 247 260 262 262 261 258 258 260 264 273 280 279 280 285 287 287 287 285 283 284 286 286 285 284 283 283 284 282 279 282 284 277 270 269 271 277 282 285 290 295 294 290 284 283 286 283 280 282 285
200 203 205 206 207 200 192 195 199 201 204 208 210 209 208 210 216 226 230 224 217 221 221 218 224 230 227 221 217 220 230 239 241 237 227 222 233 249 260 266 267 262 259 260 266 276 281 279 285 292 291 288 287 287 285 285 286 286 285 284 283 283 285 284 279 277 276 271 271 275 276 281 287 292 297 300 298 290 284 286 289 285 282 284 287
197 199 199 199 201 196 191 195 197 196 202 206 207 208 207 207 214 223 228 225 214 214 220 223 225 226 225 221 219 221 228 229 225 223 221 227 235 236 243 257 260 255 253 259 266 272 274 278 286 293 292 288 286 286 285 284 285 286 284 282 281 279 278 278 278 278 276 274 277 278 278 284 289 292 296 298 296 291 286 288 290 289 290 291 289
184 185 187 191 195 192 189 194 194 194 199 202 204 209 208 208 214 222 225 222 212 210 218 224 224 220 219 218 217 220 223 219 217 219 226 237 240 237 242 250 251 250 254 257 260 265 271 277 280 282 283 283 284 285 284 284 283 283 281 280 279 278 276 276 278 280 280 281 282 282 284 287 288 288 290 290 289 288 287 287 288 291 293 292 290
171 175 179 185 190 190 188 190 191 194 197 197 200 208 209 210 216 222 224 221 214 210 214 219 219 214 210 210 216 220 218 213 215 221 230 239 242 243 245 245 247 258 263 260 265 276 281 277 272 270 273 276 281 283 281 281 281 281 280 280 280 279 278 278 279 280 280 281 283 284 286 287 285 287 290 289 287 287 289 288 287 288 287 284 284
168 171 172 178 187 190 188 188 189 194 197 197 205 215 216 214 217 221 222 220 215 211 212 214 213 207 205 208 213 214 212 212 219 227 234 242 247 249 247 243 244 253 261 270 285 289 283 277 275 275 275 276 279 281 279 279 280 280 280 280 279 278 279 279 280 281 282 283 285 286 287 287 286 288 291 293 293 292 291 288 285 284 283 281 282
164 166 171 176 182 187 191 191 192 196 197 197 207 219 220 216 215 218 219 218 219 219 216 214 213 208 204 206 207 208 213 215 214 215 225 239 245 244 240 238 238 246 264 282 286 280 279 282 284 284 282 280 281 281 281 282 283 282 282 280 277 278 279 279 282 283 283 284 286 285 285 287 291 294 296 298 293 285 281 281 283 285 286 286 287
164 167 171 172 176 184 191 194 198 203 201 198 204 214 217 213 211 215 221 223 229 231 223 217 216 211 205 204 204 205 208 203 199 216 233 237 240 239 234 236 242 254 273 281 277 277 283 286 285 285 282 281 281 281 281 282 283 283 282 278 276 277 280 283 286 288 285 283 283 285 288 292 296 298 296 292 287 283 282 284 288 292 293 291 290
168 168 166 166 175 186 189 192 201 209 210 206 203 203 206 207 206 211 222 226 228 229 221 215 214 211 207 206 199 192 191 190 196 223 233 232 236 239 237 243 255 268 276 277 275 280 284 284 285 286 284 283 282 281 281 282 284 283 280 277 275 278 281 283 283 282 284 284 286 290 293 294 295 294 289 286 287 290 292 294 295 296 295 295 294
171 165 158 162 176 184 188 192 197 205 214 213 205 199 201 207 211 219 225 219 210 206 201 198 199 199 201 201 189 180 190 206 213 222 229 232 236 238 239 250 265 271 273 276 280 285 286 286 287 286 285 285 283 281 284 287 286 282 280 282 285 282 277 277 280 281 284 286 289 293 294 291 291 292 291 290 292 296 298 298 298 297 297 298 297
167 161 156 164 175 179 184 189 189 199 211 206 196 194 196 199 209 219 221 213 202 192 185 186 189 189 190 190 181 183 204 223 225 225 229 232 234 239 251 268 276 278 277 277 284 288 290 291 293 291 290 290 288 288 291 291 288 283 279 285 290 280 269 277 289 292 294 298 300 301 299 295 293 293 294 294 294 296 299 299 298 297 299 299 297
163 160 157 163 173 175 177 180 183 201 212 202 192 193 195 195 204 213 214 209 201 193 188 189 192 190 188 188 186 192 209 220 219 216 215 217 222 236 260 275 280 285 286 283 279 274 273 282 291 289 283 286 293 293 284 274 274 274 260 261 273 277 279 282 284 286 292 298 299 298 296 295 294 294 295 295 296 299 300 300 299 299 299 298 296
158 158 159 165 170 170 172 178 186 201 207 199 192 195 199 204 210 211 209 207 200 193 191 193 196 198 201 200 199 200 203 205 204 202 200 204 214 233 254 264 269 275 280 283 280 270 263 266 271 269 267 273 280 278 267 256 256 260 259 260 267 278 286 285 284 286 289 288 287 292 295 294 293 295 296 296 299 301 301 301 301 301 300 299 298
153 157 164 170 167 162 165 175 185 194 199 198 198 201 203 209 214 208 200 201 199 193 191 195 204 216 227 223 215 211 206 202 203 206 209 215 227 244 256 261 264 270 276 279 278 275 270 266 265 265 265 265 265 265 260 253 253 259 268 274 276 281 283 284 286 285 283 282 288 295 296 293 292 295 297 298 300 302 303 305 304 303 302 302 301
157 160 168 173 168 158 164 175 180 187 196 200 200 196 194 202 207 202 194 196 199 195 195 202 221 238 238 231 228 227 221 215 216 219 225 234 245 252 256 261 267 274 279 280 277 272 265 258 260 263 264 264 264 262 257 255 259 267 275 279 281 282 282 283 285 284 283 285 289 291 291 290 293 296 297 299 301 302 304 306 306 305 305 305 304
162 167 170 172 163 155 164 175 177 181 190 189 181 173 172 184 192 191 187 185 188 194 202 214 229 228 225 225 229 232 230 224 226 231 237 243 250 255 262 269 274 278 281 281 275 265 256 253 258 262 261 260 262 262 262 265 268 272 277 280 280 280 281 284 286 288 290 291 289 288 290 293 295 297 298 300 302 303 304 307 307 308 308 308 309
160 168 164 159 158 161 168 172 169 167 166 157 151 149 147 154 166 175 180 180 183 194 207 218 220 220 222 225 227 230 232 231 232 236 242 248 256 263 268 274 281 285 287 281 262 246 248 255 259 261 262 263 264 265 267 270 268 267 272 276 277 280 285 286 286 288 292 292 290 292 294 294 295 298 300 302 303 303 306 308 308 310 311 311 312
154 154 148 149 156 163 163 156 154 151 146 144 145 149 152 155 160 168 176 182 188 197 204 209 211 214 219 225 230 233 235 236 236 240 248 257 263 267 272 282 289 286 294 295 270 242 244 256 262 263 262 263 264 260 256 259 266 268 271 276 281 286 291 291 290 289 289 288 291 294 294 294 297 300 301 303 304 305 307 309 309 311 313 312 313
143 139 138 141 145 150 151 151 151 152 150 150 153 156 159 161 163 167 172 179 191 204 208 209 211 215 218 224 229 232 232 234 238 245 254 258 261 260 252 237 237 244 267 304 290 244 243 256 262 262 261 258 258 257 254 259 269 271 272 278 284 286 289 291 285 276 275 283 292 294 293 294 299 302 302 304 305 306 308 310 311 312 313 314 314
140 137 137 138 141 145 147 148 151 154 153 153 155 158 160 162 165 170 170 173 188 206 213 211 212 217 220 223 227 229 231 236 243 249 252 253 253 242 208 197 226 248 255 260 256 250 253 255 253 254 256 255 253 254 256 262 268 271 278 287 286 280 279 281 278 274 277 286 290 291 293 298 301 304 305 305 307 309 310 312 314 314 314 316 318
147 146 144 145 146 146 145 149 159 161 156 155 160 163 164 166 168 169 170 173 180 193 205 211 213 219 224 227 228 230 234 238 242 245 245 241 230 204 185 197 235 252 250 250 251 251 253 253 249 248 250 251 253 257 260 263 267 273 282 286 282 278 282 289 291 291 295 298 292 290 297 301 303 305 307 308 310 312 313 314 316 317 317 320 321
153 157 156 152 147 146 146 153 162 160 154 158 165 164 164 170 173 171 176 183 179 174 181 195 198 205 220 230 233 234 235 235 233 230 228 221 202 185 191 220 241 244 242 246 248 245 246 250 250 246 245 248 253 259 260 261 266 275 278 275 271 273 280 287 288 288 290 290 289 292 299 303 306 308 310 311 312 314 316 317 318 319 319 320 322
146 160 167 161 151 148 148 149 154 156 156 159 161 160 165 174 177 174 176 181 178 174 175 178 179 193 214 230 240 238 223 207 198 198 199 199 198 200 215 231 238 238 239 243 249 249 247 247 248 248 248 250 254 259 262 265 273 277 275 271 269 270 272 274 274 276 279 282 288 296 301 305 308 309 310 313 315 317 319 319 319 321 322 321 323
142 161 171 165 160 160 157 154 156 158 158 158 159 162 165 166 168 173 174 174 176 181 183 180 184 198 208 220 238 232 193 186 199 206 203 205 214 220 227 231 234 237 240 244 248 248 242 240 246 253 255 257 260 263 266 270 273 273 270 268 267 267 268 271 272 272 276 281 290 297 300 301 306 310 312 316 318 320 321 321 321 323 325 324 325
158 168 169 168 173 174 166 162 163 161 159 160 162 164 164 162 164 172 174 171 177 183 180 182 200 211 213 224 245 237 200 198 216 215 208 213 222 224 226 231 235 238 241 243 245 246 247 251 254 254 256 259 261 263 265 267 269 270 268 266 266 265 266 268 268 269 278 285 289 294 298 301 309 315 316 318 320 321 323 324 324 326 327 327 328
182 185 181 181 182 176 168 166 165 162 161 163 161 159 162 163 165 169 172 173 179 183 181 189 207 213 212 228 245 236 211 206 218 214 208 215 221 221 227 239 243 241 241 245 249 251 258 265 261 256 258 259 254 250 251 255 260 263 262 260 262 261 258 261 267 274 281 283 283 291 299 306 313 317 316 317 319 322 324 326 327 328 329 329 330
190 187 183 177 171 166 165 164 162 161 165 164 159 157 162 166 169 175 179 180 184 189 190 194 200 202 210 232 240 227 208 208 217 214 209 213 219 223 234 241 236 231 233 243 251 248 248 253 255 253 252 247 240 241 247 251 253 256 257 256 258 258 256 258 263 263 265 270 278 293 304 309 313 315 316 317 320 323 326 328 329 330 331 330 331
189 181 174 168 163 161 161 159 159 165 172 172 166 163 169 176 178 180 181 181 183 189 192 191 193 201 222 230 215 200 198 207 216 215 214 220 225 230 234 236 236 238 241 247 250 247 242 245 249 247 243 240 242 250 257 258 249 240 236 234 239 247 249 248 248 252 259 269 280 292 300 306 310 314 317 319 322 325 326 328 329 331 332 332 332
180 175 170 167 166 164 166 168 171 173 176 178 173 167 170 178 178 176 177 178 179 185 190 189 192 201 207 198 189 193 203 211 213 215 221 228 231 233 235 237 242 248 247 242 242 246 250 250 244 239 240 243 245 248 253 255 250 246 241 233 229 230 233 240 248 255 263 272 281 287 293 301 311 317 319 321 323 324 325 328 331 332 332 332 333
173 174 172 171 169 168 171 174 175 175 178 179 175 167 164 167 168 169 172 173 175 182 188 188 189 196 200 199 202 208 210 212 217 223 229 233 234 235 236 236 238 241 243 244 246 251 258 264 252 239 237 241 245 247 246 242 242 249 250 240 235 235 237 244 256 264 268 273 283 290 295 301 312 316 315 317 321 324 325 328 331 332 333 334 335
172 178 180 176 171 171 171 168 168 176 180 175 171 169 169 170 170 169 171 176 186 197 197 193 195 204 208 208 211 212 214 221 229 232 234 237 238 237 235 235 237 238 243 249 250 246 244 254 266 254 244 249 258 260 250 236 227 228 232 237 241 243 245 252 260 266 271 279 287 293 296 300 306 309 311 316 322 325 326 327 330 333 335 336 337
186 193 190 182 177 176 173 167 171 180 180 172 172 175 178 180 181 180 181 189 202 207 204 201 206 217 220 221 224 226 229 235 240 240 240 241 242 240 238 236 234 235 241 250 253 248 242 246 264 277 269 266 273 274 259 243 233 229 234 242 246 248 251 256 260 266 276 284 289 293 295 294 293 300 309 318 323 323 322 324 328 334 337 338 338
181 182 178 176 177 176 171 170 178 181 176 174 180 182 184 189 191 189 191 195 195 199 206 213 218 223 226 228 232 236 238 241 244 245 246 245 243 244 244 239 233 232 237 246 252 251 246 244 257 283 297 285 277 275 267 251 236 233 240 249 256 255 254 258 264 271 279 285 291 295 294 287 285 298 311 317 318 316 318 325 333 336 338 338 339
174 168 164 168 178 178 173 177 188 188 184 188 192 185 184 192 195 194 198 200 199 202 211 217 220 225 229 231 233 235 238 240 242 245 249 250 247 247 248 244 238 235 236 239 244 247 246 244 249 264 286 294 288 281 263 242 241 248 255 261 263 259 258 262 268 274 280 287 295 298 293 284 287 303 309 309 309 311 316 330 337 337 336 338 341
Height
1498 1501 1503 1505 1506 1509 1512 1515 1517 1519 1521 1523 1524 1526 1527 1528 1530 1531 1531 1532 1533 1534 1536 1537 1539 1540 1541 1542 1542 1542 1542 1544 1545 1547 1548 1549 1551 1552 1554 1554 1554 1554 1555 1556 1556 1556 1555 1555 1555 1555 1555 1555 1555 1554 1554 1554 1554 1554 1554 1554 1553 1553 1553 1552 1551 1549 1549 1550 1549 1548 1548 1548 1547 1546 1545 1544 1543 1542 1540 1540 1539 1539 1538 1537 1536
1494 1496 1498 1500 1502 1505 1509 1511 1513 1515 1517 1519 1521 1522 1523 1524 1526 1527 1527 1528 1529 1530 1531 1533 1534 1536 1537 1539 1540 1540 1540 1541 1543 1544 1546 1547 1548 1550 1551 1552 1553 1553 1553 1554 1554 1554 1554 1553 1554 1554 1554 1553 1553 1553 1553 1553 1553 1553 1552 1552 1552 1552 1552 1551 1550 1548 1547 1547 1547 1546 1546 1545 1544 1544 1544 1543 1542 1540 1538 1538 1537 1537 1537 1536 1534
1489 1491 1493 1496 1499 1502 1505 1507 1509 1511 1512 1514 1516 1517 1518 1520 1522 1523 1524 1525 1526 1528 1528 1528 1529 1531 1533 1535 1537 1538 1538 1539 1541 1542 1543 1545 1546 1548 1549 1550 1550 1551 1552 1552 1552 1552 1552 1552 1552 1552 1552 1552 1551 1551 1551 1551 1551 1550 1550 1550 1550 1550 1550 1549 1548 1547 1546 1545 1545 1544 1543 1543 1542 1542 1542 1541 1540 1538 1536 1536 1536 1536 1535 1534 1533
1484 1486 1489 1492 1496 1498 1501 1502 1504 1505 1507 1509 1512 1514 1516 1517 1518 1520 1522 1523 1524 1525 1526 1527 1528 1529 1530 1532 1534 1535 1536 1536 1538 1540 1541 1542 1544 1546 1547 1548 1548 1549 1550 1550 1550 1550 1550 1550 1550 1550 1550 1550 1549 1550 1549 1549 1548 1548 1548 1548 1548 1547 1548 1547 1547 1546 1544 1543 1542 1542 1541 1540 1539 1539 1539 1539 1538 1537 1535 1534 1534 1533 1533 1532 1531
1480 1482 1486 1489 1492 1494 1496 1497 1498 1500 1503 1505 1508 1511 1513 1514 1514 1516 1518 1519 1519 1520 1522 1524 1526 1526 1527 1529 1531 1533 1533 1534 1536 1538 1538 1540 1542 1543 1545 1546 1546 1547 1548 1548 1548 1548 1548 1548 1548 1548 1548 1548 1548 1548 1547 1547 1546 1546 1546 1546 1545 1545 1545 1545 1544 1544 1543 1541 1540 1539 1539 1538 1537 1536 1536 1536 1536 1535 1533 1532 1531 1531 1530 1530 1529
1476 1478 1482 1485 1487 1489 1490 1492 1493 1496 1499 1501 1505 1508 1509 1510 1510 1511 1513 1515 1515 1516 1518 1520 1522 1524 1525 1527 1528 1530 1531 1532 1534 1536 1537 1537 1539 1541 1542 1543 1544 1544 1545 1545 1546 1546 1546 1546 1546 1546 1546 1546 1546 1546 1545 1545 1544 1544 1544 1543 1543 1543 1543 1543 1542 1542 1541 1540 1538 1537 1536 1536 1535 1534 1534 1534 1533 1532 1531 1529 1528 1528 1527 1526 1525
1473 1475 1477 1480 1482 1483 1485 1487 1489 1493 1495 1497 1501 1503 1505 1506 1506 1507 1509 1511 1512 1512 1514 1516 1518 1521 1523 1524 1525 1527 1528 1529 1531 1534 1535 1536 1537 1538 1540 1541 1541 1542 1542 1543 1543 1543 1544 1544 1544 1544 1544 1543 1543 1543 1543 1543 1543 1542 1542 1541 1541 1541 1541 1540 1540 1539 1539 1538 1536 1535 1534 1534 1533 1532 1531 1531 1530 1528 1527 1526 1525 1525 1524 1523 1522
1469 1471 1473 1476 1477 1478 1481 1483 1486 1489 1492 1493 1497 1499 1501 1503 1503 1503 1505 1508 1509 1509 1511 1513 1515 1517 1519 1520 1522 1524 1526 1527 1529 1531 1532 1533 1535 1536 1537 1539 1539 1540 1540 1540 1541 1541 1541 1542 1542 1542 1542 1541 1541 1541 1541 1541 1541 1540 1539 1539 1539 1539 1539 1538 1538 1537 1536 1535 1534 1533 1532 1532 1531 1530 1529 1528 1527 1526 1525 1524 1523 1522 1522 1520 1519
1466 1468 1469 1471 1473 1475 1478 1480 1482 1485 1488 1489 1492 1494 1497 1498 1499 1500 1502 1504 1505 1506 1508 1510 1512 1514 1515 1517 1519 1521 1522 1523 1526 1528 1529 1530 1532 1533 1535 1536 1537 1537 1538 1538 1538 1539 1539 1539 1540 1540 1539 1539 1538 1538 1538 1538 1538 1538 1537 1537 1537 1536 1536 1536 1535 1534 1533 1532 1531 1531 1530 1529 1528 1528 1527 1526 1525 1524 1523 1522 1521 1519 1518 1517 1516
1462 1464 1465 1467 1469 1471 1474 1476 1479 1481 1483 1485 1487 1490 1493 1494 1495 1496 1498 1500 1502 1503 1505 1507 1508 1510 1512 1513 1515 1517 1519 1520 1523 1525 1526 1527 1529 1531 1532 1534 1534 1535 1535 1536 1536 1536 1537 1537 1537 1537 1537 1536 1535 1535 1535 1535 1535 1535 1535 1534 1534 1534 1533 1533 1533 1532 1530 1529 1528 1528 1527 1527 1526 1525 1525 1524 1523 1522 1521 1519 1518 1516 1515 1514 1512
1457 1460 1461 1463 1465 1468 1471 1473 1475 1478 1480 1482 1484 1486 1489 1490 1492 1493 1494 1497 1499 1500 1502 1503 1504 1506 1508 1509 1511 1513 1515 1518 1520 1522 1524 1525 1527 1528 1530 1531 1532 1532 1533 1533 1533 1534 1534 1534 1534 1534 1533 1532 1532 1531 1531 1532 1532 1532 1531 1531 1531 1531 1530 1530 1529 1528 1528 1526 1526 1526 1525 1524 1523 1523 1522 1521 1520 1519 1518 1516 1515 1513 1512 1510 1508
1454 1456 1458 1460 1462 1465 1468 1470 1473 1475 1477 1479 1481 1483 1485 1487 1489 1490 1491 1494 1496 1496 1498 1500 1501 1502 1504 1505 1507 1509 1511 1514 1516 1519 1521 1523 1524 1526 1527 1529 1529 1530 1531 1531 1531 1531 1531 1531 1531 1531 1531 1530 1530 1529 1528 1528 1528 1528 1528 1528 1528 1528 1527 1526 1525 1525 1524 1523 1522 1522 1521 1521 1520 1519 1519 1518 1517 1516 1514 1513 1512 1510 1508 1507 1505
1451 1453 1455 1458 1460 1462 1465 1467 1470 1472 1474 1476 1478 1480 1482 1483 1486 1488 1488 1490 1492 1493 1494 1496 1497 1499 1500 1501 1503 1505 1507 1510 1512 1515 1518 1520 1522 1523 1524 1526 1526 1527 1528 1528 1528 1528 1528 1528 1528 1527 1527 1527 1527 1526 1525 1524 1524 1524 1524 1525 1524 1524 1523 1522 1521 1521 1520 1520 1518 1518 1518 1517 1516 1515 1515 1514 1513 1512 1510 1509 1509 1507 1505 1503 1502
1448 1451 1453 1455 1457 1460 1463 1464 1467 1469 1471 1472 1474 1476 1479 1480 1483 1485 1486 1487 1488 1489 1491 1492 1494 1496 1496 1498 1500 1503 1505 1508 1510 1512 1515 1517 1519 1521 1522 1523 1524 1524 1525 1525 1525 1525 1525 1525 1525 1524 1524 1523 1523 1523 1522 1521 1520 1520 1519 1520 1520 1519 1519 1518 1517 1516 1516 1515 1514 1513 1514 1514 1513 1511 1512 1511 1510 1508 1507 1506 1505 1503 1501 1500 1498
1445 1448 1451 1453 1455 1457 1459 1461 1464 1466 1467 1469 1471 1473 1475 1477 1479 1482 1483 1484 1484 1486 1488 1488 1490 1492 1494 1496 1499 1501 1503 1505 1506 1509 1512 1515 1517 1518 1519 1520 1521 1521 1522 1522 1522 1522 1522 1522 1521 1521 1520 1520 1520 1519 1519 1518 1517 1515 1514 1515 1516 1514 1513 1513 1513 1512 1511 1511 1510 1510 1509 1510 1509 1508 1508 1507 1506 1505 1503 1502 1501 1499 1497 1496 1494
1442 1445 1448 1450 1452 1455 1456 1458 1460 1462 1464 1466 1467 1469 1471 1473 1475 1478 1480 1482 1482 1483 1485 1486 1486 1489 1491 1492 1495 1498 1500 1502 1503 1506 1509 1512 1515 1516 1516 1517 1518 1519 1519 1519 1519 1519 1519 1519 1519 1518 1517 1517 1517 1517 1517 1516 1515 1513 1511 1511 1511 1510 1510 1509 1508 1507 1508 1507 1506 1506 1506 1506 1506 1505 1505 1504 1502 1501 1500 1498 1497 1496 1494 1492 1490
1439 1442 1445 1447 1450 1452 1453 1455 1458 1460 1462 1463 1464 1466 1469 1471 1473 1474 1476 1479 1480 1481 1483 1484 1484 1484 1486 1488 1491 1494 1497 1499 1501 1504 1507 1509 1511 1513 1514 1515 1516 1516 1516 1516 1516 1516 1516 1516 1516 1515 1515 1515 1514 1514 1514 1513 1512 1511 1509 1508 1508 1507 1507 1506 1505 1504 1505 1505 1504 1503 1503 1503 1502 1502 1501 1501 1499 1498 1496 1494 1494 1493 1492 1489 1487
1436 1439 1442 1445 1447 1449 1451 1453 1455 1457 1459 1460 1462 1464 1466 1468 1470 1471 1473 1475 1477 1478 1480 1482 1481 1480 1482 1486 1488 1490 1494 1497 1499 1502 1504 1506 1508 1509 1511 1512 1514 1514 1514 1513 1513 1513 1513 1513 1513 1512 1512 1512 1511 1511 1510 1509 1508 1508 1506 1505 1505 1504 1503 1503 1503 1502 1502 1502 1501 1501 1499 1499 1498 1497 1497 1497 1496 1494 1492 1491 1491 1490 1489 1487 1484
1434 1437 1440 1443 1445 1448 1450 1452 1453 1455 1456 1458 1460 1462 1463 1465 1467 1468 1469 1472 1474 1475 1477 1479 1479 1478 1480 1482 1484 1487 1492 1496 1497 1498 1500 1502 1503 1505 1507 1510 1511 1511 1511 1511 1511 1511 1510 1510 1509 1509 1509 1509 1508 1507 1507 1506 1505 1504 1504 1502 1502 1501 1501 1500 1500 1499 1498 1498 1498 1498 1496 1496 1495 1494 1493 1492 1492 1491 1489 1487 1487 1487 1485 1483 1482
1433 1437 1439 1442 1444 1446 1448 1450 1451 1453 1455 1456 1459 1460 1462 1463 1464 1465 1466 1469 1471 1473 1475 1477 1478 1478 1478 1479 1482 1485 1490 1492 1492 1494 1496 1498 1500 1502 1504 1506 1508 1508 1508 1508 1508 1508 1508 1507 1505 1505 1505 1505 1505 1504 1503 1503 1502 1502 1501 1500 1499 1499 1498 1498 1497 1497 1496 1495 1495 1494 1494 1493 1492 1491 1490 1489 1488 1487 1486 1484 1484 1483 1481 1480 1479
1433 1436 1438 1440 1443 1445 1447 1448 1449 1451 1453 1455 1457 1459 1460 1462 1462 1463 1464 1466 1469 1472 1473 1475 1477 1478 1478 1479 1482 1484 1486 1487 1488 1490 1493 1496 1498 1499 1501 1503 1505 1505 1505 1506 1506 1505 1504 1503 1502 1502 1501 1501 1501 1501 1500 1500 1500 1499 1498 1497 1496 1496 1495 1495 1495 1494 1493 1493 1492 1491 1491 1490 1490 1488 1487 1486 1485 1484 1483 1482 1481 1479 1479 1478 1476
1432 1435 1438 1441 1443 1444 1446 1447 1448 1449 1451 1452 1454 1456 1458 1459 1460 1461 1463 1465 1467 1470 1472 1473 1476 1478 1478 1479 1480 1481 1482 1484 1486 1488 1491 1494 1496 1498 1499 1501 1502 1503 1502 1502 1501 1501 1500 1500 1499 1499 1498 1498 1497 1497 1497 1497 1497 1496 1495 1495 1494 1493 1493 1493 1492 1492 1491 1490 1490 1489 1488 1488 1487 1486 1485 1484 1483 1482 1481 1481 1480 1478 1477 1476 1474
1431 1434 1437 1441 1444 1445 1446 1447 1448 1449 1450 1451 1453 1454 1455 1457 1458 1459 1462 1464 1466 1468 1470 1472 1474 1475 1476 1476 1477 1478 1480 1481 1483 1485 1489 1494 1496 1497 1498 1499 1499 1500 1499 1498 1498 1498 1497 1496 1496 1495 1495 1495 1494 1494 1494 1494 1493 1493 1492 1492 1491 1491 1491 1490 1490 1489 1488 1487 1487 1486 1485 1485 1484 1483 1482 1482 1481 1480 1479 1478 1477 1476 1474 1471 1470
1430 1432 1434 1438 1443 1446 1446 1447 1447 1448 1449 1450 1451 1452 1454 1456 1457 1458 1460 1462 1464 1465 1467 1469 1471 1472 1473 1473 1474 1476 1477 1478 1480 1483 1487 1492 1494 1495 1496 1496 1495 1496 1495 1494 1495 1495 1494 1493 1493 1492 1492 1492 1491 1491 1491 1490 1490 1489 1489 1489 1488 1488 1488 1488 1487 1486 1485 1485 1484 1483 1483 1482 1482 1481 1480 1479 1478 1476 1475 1474 1472 1471 1469 1467 1466
1430 1430 1432 1436 1440 1443 1445 1446 1446 1446 1447 1448 1449 1451 1452 1453 1455 1456 1458 1460 1462 1462 1463 1465 1467 1470 1472 1472 1472 1473 1475 1477 1479 1481 1486 1490 1492 1492 1492 1492 1492 1492 1492 1491 1492 1491 1491 1491 1490 1490 1489 1489 1489 1488 1487 1487 1486 1486 1486 1486 1486 1486 1486 1485 1485 1484 1483 1483 1482 1481 1481 1480 1480 1479 1478 1477 1474 1472 1471 1470 1468 1467 1466 1464 1462
1429 1431 1433 1435 1438 1441 1443 1445 1445 1445 1446 1446 1448 1449 1450 1451 1453 1455 1456 1458 1459 1460 1461 1463 1466 1468 1470 1470 1470 1471 1474 1476 1478 1481 1484 1486 1488 1488 1489 1489 1489 1489 1488 1489 1488 1488 1488 1488 1487 1487 1487 1486 1486 1485 1484 1484 1483 1483 1483 1483 1483 1484 1484 1483 1483 1482 1481 1481 1480 1480 1479 1478 1478 1477 1475 1473 1471 1469 1468 1467 1465 1464 1463 1461 1458
1429 1431 1433 1435 1437 1439 1441 1442 1443 1444 1445 1445 1446 1448 1449 1450 1451 1453 1455 1456 1458 1459 1461 1463 1465 1467 1468 1469 1469 1471 1473 1475 1476 1479 1481 1483 1484 1485 1486 1486 1486 1486 1486 1486 1485 1485 1485 1485 1485 1485 1484 1483 1483 1482 1481 1481 1481 1480 1481 1481 1481 1482 1482 1482 1481 1481 1480 1479 1479 1478 1478 1477 1475 1474 1472 1470 1469 1467 1466 1465 1463 1461 1460 1458 1455
1429 1430 1432 1434 1435 1437 1439 1441 1442 1443 1443 1444 1445 1446 1447 1448 1449 1451 1452 1454 1455 1458 1460 1461 1463 1466 1467 1468 1470 1472 1473 1474 1475 1477 1480 1481 1482 1483 1483 1483 1483 1483 1483 1483 1483 1482 1482 1482 1482 1482 1481 1480 1480 1480 1480 1479 1479 1479 1479 1480 1481 1481 1481 1480 1480 1479 1478 1478 1477 1476 1476 1474 1473 1472 1470 1468 1467 1466 1464 1463 1461 1459 1457 1455 1453
1428 1429 1431 1433 1434 1436 1438 1439 1440 1441 1441 1442 1443 1445 1445 1446 1447 1448 1450 1452 1454 1456 1458 1461 1463 1464 1465 1467 1469 1471 1472 1473 1475 1477 1479 1480 1481 1481 1481 1481 1480 1480 1480 1481 1481 1481 1481 1480 1480 1480 1479 1479 1479 1479 1479 1479 1479 1479 1479 1480 1480 1480 1480 1479 1479 1478 1477 1476 1476 1475 1474 1472 1471 1469 1468 1466 1465 1464 1462 1461 1459 1457 1455 1453 1451
1427 1429 1431 1432 1434 1435 1436 1438 1438 1439 1440 1441 1442 1443 1444 1445 1446 1447 1449 1452 1454 1455 1457 1460 1462 1463 1464 1465 1468 1470 1472 1473 1475 1476 1478 1479 1480 1479 1479 1479 1479 1478 1479 1479 1479 1480 1479 1479 1480 1480 1479 1479 1478 1478 1479 1479 1479 1479 1479 1479 1479 1479 1479 1478 1478 1477 1476 1476 1474 1473 1472 1471 1469 1468 1466 1465 1463 1462 1460 1458 1457 1455 1453 1452 1449
1427 1429 1431 1432 1432 1433 1435 1436 1437 1437 1439 1440 1441 1442 1443 1444 1445 1447 1449 1452 1453 1455 1457 1459 1460 1461 1463 1465 1467 1469 1471 1472 1473 1475 1476 1477 1477 1477 1477 1477 1477 1477 1477 1477 1477 1477 1477 1477 1478 1478 1478 1478 1477 1478 1478 1478 1478 1478 1478 1478 1478 1478 1477 1477 1476 1475 1475 1473 1472 1471 1470 1469 1468 1466 1465 1463 1461 1460 1458 1457 1455 1454 1452 1450 1448
1427 1428 1429 1430 1430 1432 1433 1435 1436 1436 1437 1439 1440 1440 1442 1443 1445 1447 1449 1451 1453 1454 1456 1457 1458 1459 1461 1464 1466 1467 1469 1470 1471 1472 1473 1474 1474 1474 1475 1475 1475 1474 1474 1474 1474 1475 1475 1476 1476 1476 1476 1476 1476 1476 1477 1477 1477 1477 1477 1477 1477 1476 1476 1475 1474 1473 1472 1471 1470 1469 1469 1467 1466 1464 1463 1462 1460 1458 1457 1455 1454 1452 1451 1449 1447
1427 1427 1427 1428 1429 1431 1433 1434 1435 1435 1436 1437 1438 1440 1441 1442 1444 1446 1448 1450 1452 1454 1455 1456 1457 1458 1461 1463 1465 1466 1467 1468 1469 1470 1470 1471 1472 1472 1473 1473 1472 1472 1472 1472 1472 1473 1474 1474 1475 1475 1475 1475 1475 1475 1475 1476 1476 1476 1476 1476 1476 1475 1475 1474 1471 1469 1469 1468 1468 1467 1466 1466 1464 1463 1461 1460 1459 1457 1456 1454 1453 1451 1449 1447 1445
1426 1426 1426 1428 1429 1431 1432 1434 1434 1434 1434 1436 1437 1439 1441 1442 1444 1446 1448 1449 1451 1453 1454 1455 1456 1458 1460 1462 1463 1464 1465 1466 1466 1467 1468 1469 1470 1470 1471 1471 1470 1470 1470 1470 1471 1472 1473 1473 1473 1473 1474 1474 1474 1474 1474 1474 1475 1475 1475 1475 1474 1473 1473 1471 1469 1468 1468 1467 1466 1466 1465 1464 1463 1461 1460 1459 1458 1456 1455 1453 1451 1450 1448 1446 1443
1425 1425 1426 1427 1429 1431 1432 1433 1434 1434 1434 1436 1438 1440 1442 1443 1445 1446 1448 1449 1450 1452 1454 1455 1456 1458 1460 1461 1462 1462 1463 1463 1464 1465 1466 1467 1468 1468 1469 1468 1469 1469 1469 1469 1470 1470 1471 1472 1472 1472 1472 1473 1472 1472 1472 1473 1473 1473 1473 1473 1472 1472 1470 1469 1468 1467 1467 1466 1465 1464 1463 1462 1461 1460 1459 1458 1457 1455 1453 1452 1451 1449 1447 1444 1442
1424 1425 1426 1427 1429 1430 1431 1432 1433 1433 1435 1437 1439 1441 1442 1444 1445 1447 1448 1449 1450 1451 1452 1454 1455 1457 1458 1459 1460 1460 1461 1462 1463 1464 1464 1465 1466 1466 1467 1468 1468 1468 1468 1468 1469 1469 1470 1470 1470 1471 1471 1471 1471 1471 1472 1472 1472 1472 1472 1471 1471 1470 1469 1468 1467 1466 1464 1464 1463 1463 1462 1461 1460 1459 1458 1457 1456 1454 1452 1451 1449 1447 1445 1443 1441
1425 1425 1426 1427 1429 1429 1430 1432 1433 1434 1435 1437 1440 1441 1443 1444 1446 1447 1448 1449 1450 1450 1451 1453 1454 1455 1456 1457 1458 1459 1459 1460 1461 1462 1463 1464 1464 1465 1466 1467 1468 1468 1468 1468 1468 1469 1469 1469 1469 1469 1470 1470 1470 1471 1471 1471 1471 1470 1470 1470 1470 1468 1466 1465 1465 1463 1462 1462 1462 1461 1461 1460 1459 1458 1457 1456 1455 1453 1452 1450 1448 1446 1444 1442 1440
1424 1425 1426 1427 1427 1429 1430 1431 1433 1434 1436 1438 1440 1441 1443 1444 1445 1446 1448 1449 1449 1450 1451 1452 1453 1454 1455 1456 1457 1457 1458 1459 1460 1460 1461 1462 1463 1464 1465 1466 1467 1468 1468 1467 1467 1468 1468 1468 1468 1468 1469 1469 1470 1470 1470 1470 1469 1469 1469 1469 1468 1466 1464 1463 1463 1461 1461 1461 1461 1461 1460 1459 1458 1457 1456 1455 1454 1452 1451 1449 1447 1445 1443 1441 1439
1423 1424 1425 1426 1427 1429 1430 1432 1433 1435 1437 1438 1440 1441 1442 1444 1445 1446 1447 1448 1449 1450 1450 1451 1452 1453 1454 1454 1455 1456 1457 1458 1458 1459 1460 1461 1462 1463 1464 1465 1466 1466 1466 1466 1466 1466 1467 1467 1467 1467 1468 1468 1468 1468 1468 1468 1468 1467 1467 1466 1465 1464 1463 1463 1462 1461 1461 1461 1460 1460 1459 1458 1457 1456 1455 1454 1453 1451 1449 1448 1446 1444 1442 1440 1438
1423 1424 1425 1426 1428 1429 1430 1432 1434 1435 1437 1438 1439 1441 1442 1443 1444 1446 1447 1448 1449 1450 1450 1451 1453 1453 1452 1452 1453 1454 1455 1457 1458 1459 1460 1461 1462 1463 1464 1464 1465 1465 1465 1465 1465 1465 1465 1466 1466 1466 1466 1467 1467 1467 1466 1466 1466 1466 1465 1464 1463 1463 1462 1462 1462 1461 1461 1460 1460 1459 1458 1457 1456 1455 1454 1453 1452 1450 1448 1447 1445 1444 1442 1439 1437
1424 1425 1426 1427 1429 1430 1430 1432 1433 1434 1436 1437 1439 1440 1442 1443 1444 1445 1447 1448 1449 1449 1450 1451 1452 1452 1451 1451 1452 1453 1455 1456 1458 1459 1460 1461 1462 1462 1463 1463 1463 1464 1464 1464 1464 1464 1464 1464 1465 1465 1465 1465 1465 1465 1465 1464 1464 1464 1463 1462 1462 1461 1461 1461 1461 1460 1460 1459 1459 1458 1457 1456 1455 1454 1453 1452 1451 1449 1448 1446 1445 1443 1441 1439 1437
1424 1425 1426 1427 1429 1430 1431 1432 1432 1433 1435 1437 1438 1440 1441 1442 1444 1445 1446 1447 1448 1449 1450 1450 1450 1450 1450 1451 1452 1453 1454 1456 1457 1458 1459 1460 1460 1461 1461 1462 1462 1462 1463 1463 1462 1462 1462 1463 1463 1464 1463 1463 1463 1463 1463 1463 1462 1461 1461 1461 1461 1460 1460 1460 1460 1459 1459 1458 1458 1457 1456 1455 1454 1453 1452 1451 1450 1449 1447 1446 1444 1442 1440 1438 1436
1424 1425 1426 1427 1427 1429 1430 1431 1432 1433 1435 1436 1437 1439 1440 1441 1443 1444 1445 1446 1447 1448 1449 1449 1448 1448 1449 1450 1451 1452 1454 1455 1456 1457 1457 1458 1459 1459 1460 1460 1461 1461 1461 1461 1461 1461 1461 1462 1462 1462 1462 1462 1461 1461 1460 1460 1459 1459 1459 1459 1459 1459 1459 1459 1459 1458 1458 1457 1457 1456 1455 1454 1453 1452 1452 1451 1449 1448 1446 1445 1443 1441 1440 1438 1436
1424 1425 1426 1426 1427 1428 1429 1430 1432 1433 1434 1435 1436 1438 1439 1440 1442 1443 1443 1445 1445 1446 1448 1448 1447 1448 1448 1449 1450 1451 1452 1454 1455 1456 1456 1457 1458 1458 1459 1459 1459 1459 1460 1460 1460 1460 1460 1460 1460 1460 1460 1459 1458 1457 1456 1456 1456 1457 1457 1457 1458 1458 1457 1457 1457 1457 1456 1455 1455 1454 1454 1453 1452 1451 1451 1450 1448 1447 1446 1444 1443 1441 1439 1437 1435
1423 1424 1425 1426 1427 1428 1429 1430 1431 1432 1433 1434 1436 1437 1438 1439 1441 1441 1442 1443 1444 1445 1446 1447 1447 1447 1448 1448 1449 1450 1451 1453 1454 1454 1455 1456 1456 1457 1458 1458 1457 1457 1458 1458 1459 1458 1458 1458 1458 1458 1457 1456 1455 1454 1453 1453 1454 1454 1454 1455 1455 1456 1456 1455 1455 1454 1453 1453 1453 1453 1452 1452 1451 1450 1450 1448 1447 1446 1445 1444 1442 1440 1439 1437 1435
1423 1424 1425 1426 1427 1427 1428 1429 1430 1431 1433 1434 1436 1436 1438 1439 1439 1440 1441 1442 1443 1444 1445 1446 1447 1447 1447 1448 1449 1450 1451 1452 1453 1453 1454 1455 1455 1455 1456 1456 1456 1456 1457 1457 1457 1457 1456 1456 1456 1455 1454 1454 1453 1452 1452 1452 1451 1451 1451 1452 1453 1453 1453 1452 1452 1452 1452 1452 1451 1451 1451 1450 1449 1449 1448 1447 1446 1445 1444 1443 1442 1440 1438 1437 1435
1423 1423 1425 1426 1426 1427 1428 1428 1429 1431 1433 1434 1435 1436 1437 1438 1438 1439 1440 1441 1442 1443 1444 1445 1446 1447 1447 1448 1449 1449 1450 1451 1451 1452 1453 1453 1453 1454 1455 1455 1455 1455 1456 1456 1456 1455 1454 1453 1453 1453 1452 1451 1451 1450 1450 1450 1450 1450 1450 1450 1450 1450 1450 1450 1450 1450 1450 1450 1450 1449 1449 1448 1448 1448 1447 1446 1445 1444 1444 1443 1441 1440 1438 1436 1435
1423 1424 1424 1425 1426 1427 1427 1428 1430 1431 1432 1433 1434 1435 1436 1437 1438 1438 1439 1440 1441 1442 1443 1444 1445 1446 1447 1447 1448 1448 1449 1450 1450 1451 1451 1452 1452 1453 1453 1453 1454 1454 1454 1454 1455 1454 1453 1452 1451 1451 1450 1449 1449 1448 1448 1448 1449 1449 1449 1448 1448 1448 1448 1449 1449 1449 1449 1449 1448 1448 1447 1447 1447 1447 1446 1445 1444 1444 1443 1442 1441 1439 1437 1436 1435
1422 1423 1423 1424 1425 1426 1427 1428 1430 1431 1432 1433 1434 1434 1435 1436 1437 1438 1439 1440 1441 1442 1442 1443 1444 1445 1446 1446 1447 1448 1448 1449 1449 1449 1450 1450 1450 1451 1451 1451 1452 1452 1453 1453 1453 1453 1452 1451 1449 1449 1448 1448 1447 1447 1447 1447 1448 1448 1447 1446 1446 1447 1447 1448 1447 1447 1447 1447 1447 1446 1446 1445 1445 1445 1445 1444 1444 1443 1443 1441 1440 1438 1437 1436 1435
1422 1422 1423 1424 1425 1425 1427 1428 1429 1430 1431 1432 1433 1434 1435 1436 1437 1437 1438 1439 1440 1441 1442 1443 1444 1444 1445 1445 1446 1447 1447 1447 1448 1448 1448 1448 1449 1449 1449 1450 1449 1450 1451 1451 1451 1451 1451 1450 1449 1447 1447 1446 1446 1446 1446 1446 1446 1446 1445 1445 1445 1446 1446 1446 1446 1446 1446 1446 1445 1445 1444 1444 1444 1444 1444 1444 1443 1442 1441 1440 1439 1438 1437 1437 1436
1422 1422 1423 1424 1425 1426 1427 1428 1429 1430 1431 1431 1432 1433 1434 1435 1436 1437 1438 1439 1440 1441 1442 1442 1443 1443 1444 1444 1444 1444 1445 1445 1445 1446 1446 1446 1447 1447 1447 1448 1448 1447 1448 1449 1449 1449 1450 1449 1448 1447 1445 1445 1445 1445 1445 1445 1444 1444 1444 1444 1445 1445 1444 1445 1445 1445 1445 1444 1444 1443 1443 1442 1442 1442 1443 1443 1442 1441 1440 1439 1439 1438 1438 1437 1436